Voltar ao catálogo

FENGYUN 1C DEB

AtivoPO
NORAD 37682·DEBRIS·🇨🇳 China

Lançado May 10, 1999 de Taiyuan Satellite Launch Center

Loading…

Próximas Passagens (próximas 24 horas)

TLE

EnvelhecendoSource: Space-Track

Época: Sep 6, 2026, 22:02 UTC

1 37682U 99025EKX 26249.91853345  .00001126  00000-0  10489-2 0  9996
2 37682  98.5824 233.5523 0227593   3.0665 357.1821 13.72913241661121

Acompanhe FENGYUN 1C DEB em tempo real com AllMySat

Download on the App Store